• In Russia
  • List of Countries
  • For 7 days
  • Water Temperature
  • Satellite Maps
  • Weather Map
  • Weather Widgets
  • user-avatar
    Login

    Hourly Weather Burdukovo

    Today, 21 September, Friday

    Time Temperature Precipitation Wind Pressure Humidity
    00:00 +3°C° 0 mm 7 mps 716 mmHg 84%
    01:00 +3°C° 0 mm 7 mps 717 mmHg 84%
    02:00 +2°C° 0 mm 6 mps 717 mmHg 85%
    03:00 +2°C° 0 mm 6 mps 717 mmHg 85%
    04:00 +2°C° 0 mm 6 mps 717 mmHg 86%
    05:00 +2°C° 0 mm 6 mps 718 mmHg 85%
    06:00 +3°C° 0 mm 6 mps 718 mmHg 84%
    07:00 +3°C° 0 mm 6 mps 719 mmHg 83%
    08:00 +4°C° 0 mm 6 mps 719 mmHg 80%
    09:00 +4°C° 0 mm 6 mps 719 mmHg 78%
    10:00 +5°C° 0 mm 6 mps 720 mmHg 75%
    11:00 +7°C° 0 mm 6 mps 720 mmHg 73%
    12:00 +7°C° 0 mm 6 mps 720 mmHg 71%
    13:00 +8°C° 0 mm 6 mps 719 mmHg 60%
    14:00 +8°C° 0 mm 6 mps 720 mmHg 60%
    15:00 +8°C° 0 mm 6 mps 720 mmHg 60%
    16:00 +8°C° 0 mm 5 mps 720 mmHg 59%
    17:00 +7°C° 0 mm 4 mps 720 mmHg 66%
    18:00 +5°C° 0 mm 3 mps 721 mmHg 73%
    19:00 +5°C° 0 mm 3 mps 721 mmHg 77%
    20:00 +5°C° 0.2 mm 2 mps 721 mmHg 79%
    21:00 +5°C° 0.2 mm 2 mps 721 mmHg 81%
    22:00 +5°C° 0.2 mm 2 mps 721 mmHg 83%
    23:00 +5°C° 0.1 mm 2 mps 721 mmHg 84%

    Tomorrow, 22 September, Saturday

    Time Temperature Precipitation Wind Pressure Humidity
    00:00 +5°C° 0.1 mm 2 mps 722 mmHg 86%
    01:00 +5°C° 0.1 mm 2 mps 722 mmHg 88%
    02:00 +4°C° 0 mm 2 mps 722 mmHg 89%
    03:00 +4°C° 0 mm 2 mps 722 mmHg 90%
    04:00 +5°C° 0 mm 1 mps 723 mmHg 91%
    05:00 +5°C° 0 mm 1 mps 723 mmHg 89%
    06:00 +5°C° 0 mm 1 mps 723 mmHg 87%
    07:00 +6°C° 0 mm 1 mps 724 mmHg 86%
    08:00 +8°C° 0 mm 1 mps 724 mmHg 77%
    09:00 +9°C° 0 mm 2 mps 724 mmHg 69%
    10:00 +12°C° 0 mm 2 mps 724 mmHg 61%
    11:00 +13°C° 0 mm 2 mps 724 mmHg 57%
    12:00 +14°C° 0 mm 2 mps 724 mmHg 54%
    13:00 +15°C° 0 mm 2 mps 724 mmHg 50%
    14:00 +15°C° 0 mm 2 mps 723 mmHg 51%
    15:00 +14°C° 0 mm 2 mps 723 mmHg 52%
    16:00 +14°C° 0 mm 2 mps 723 mmHg 54%
    17:00 +12°C° 0 mm 2 mps 723 mmHg 62%
    18:00 +10°C° 0 mm 1 mps 723 mmHg 71%
    19:00 +7°C° 0 mm 1 mps 723 mmHg 80%
    20:00 +7°C° 0 mm 1 mps 723 mmHg 82%
    21:00 +6°C° 0 mm 1 mps 723 mmHg 83%
    22:00 +6°C° 0 mm 1 mps 724 mmHg 85%
    23:00 +6°C° 0 mm 1 mps 724 mmHg 85%

    Day after tomorrow, 23 September, Sunday

    Time Temperature Precipitation Wind Pressure Humidity
    00:00 +5°C° 0 mm 1 mps 723 mmHg 86%
    01:00 +5°C° 0 mm 1 mps 723 mmHg 87%
    02:00 +5°C° 0 mm 1 mps 723 mmHg 88%
    03:00 +5°C° 0 mm 1 mps 723 mmHg 89%
    04:00 +4°C° 0 mm 1 mps 723 mmHg 90%
    05:00 +5°C° 0 mm 1 mps 723 mmHg 87%
    06:00 +6°C° 0 mm 1 mps 723 mmHg 84%
    07:00 +7°C° 0 mm 1 mps 723 mmHg 82%
    08:00 +8°C° 0 mm 2 mps 723 mmHg 73%
    09:00 +10°C° 0 mm 2 mps 723 mmHg 64%
    10:00 +14°C° 0 mm 2 mps 723 mmHg 55%
    11:00 +15°C° 0 mm 2 mps 722 mmHg 51%
    12:00 +16°C° 0 mm 3 mps 722 mmHg 47%
    13:00 +17°C° 0 mm 3 mps 721 mmHg 44%
    14:00 +17°C° 0 mm 3 mps 721 mmHg 45%
    15:00 +17°C° 0 mm 2 mps 721 mmHg 46%
    16:00 +16°C° 0 mm 2 mps 720 mmHg 47%
    17:00 +14°C° 0 mm 2 mps 721 mmHg 56%
    18:00 +12°C° 0 mm 2 mps 721 mmHg 65%
    19:00 +10°C° 0 mm 1 mps 721 mmHg 73%
    20:00 +9°C° 0 mm 1 mps 721 mmHg 77%
    21:00 +8°C° 0 mm 1 mps 721 mmHg 81%
    22:00 +8°C° 0 mm 1 mps 721 mmHg 85%
    23:00 +7°C° 0 mm 1 mps 721 mmHg 87%

    24 September, Monday

    Time Temperature Precipitation Wind Pressure Humidity
    00:00 +7°C° 0 mm 1 mps 720 mmHg 89%
    01:00 +7°C° 0 mm 1 mps 720 mmHg 91%
    02:00 +6°C° 0 mm 1 mps 720 mmHg 92%
    03:00 +6°C° 0 mm 1 mps 720 mmHg 93%
    04:00 +6°C° 0 mm 1 mps 720 mmHg 93%
    05:00 +6°C° 0 mm 1 mps 720 mmHg 91%
    06:00 +7°C° 0 mm 1 mps 720 mmHg 88%
    07:00 +7°C° 0 mm 1 mps 720 mmHg 86%
    08:00 +10°C° 0 mm 1 mps 720 mmHg 76%
    09:00 +12°C° 0 mm 1 mps 719 mmHg 66%
    10:00 +14°C° 0 mm 1 mps 719 mmHg 57%
    11:00 +15°C° 0 mm 1 mps 719 mmHg 53%
    12:00 +16°C° 0 mm 1 mps 718 mmHg 49%
    13:00 +18°C° 0 mm 1 mps 718 mmHg 45%
    14:00 +18°C° 0 mm 1 mps 718 mmHg 46%
    15:00 +18°C° 0 mm 1 mps 718 mmHg 48%
    16:00 +16°C° 0 mm 1 mps 717 mmHg 50%
    17:00 +14°C° 0 mm 1 mps 717 mmHg 56%
    18:00 +12°C° 0 mm 1 mps 717 mmHg 62%
    19:00 +10°C° 0 mm 1 mps 718 mmHg 68%
    20:00 +10°C° 0 mm 1 mps 718 mmHg 70%
    21:00 +9°C° 0 mm 1 mps 718 mmHg 72%
    22:00 +9°C° 0 mm 1 mps 718 mmHg 74%
    23:00 +8°C° 0 mm 1 mps 717 mmHg 76%

    25 September, Tuesday

    Time Temperature Precipitation Wind Pressure Humidity
    00:00 +8°C° 0 mm 1 mps 717 mmHg 78%
    01:00 +7°C° 0 mm 1 mps 717 mmHg 80%
    02:00 +7°C° 0 mm 1 mps 717 mmHg 82%
    03:00 +7°C° 0 mm 1 mps 717 mmHg 83%
    04:00 +6°C° 0 mm 1 mps 717 mmHg 85%
    05:00 +7°C° 0 mm 1 mps 717 mmHg 82%
    06:00 +8°C° 0 mm 1 mps 717 mmHg 80%
    07:00 +8°C° 0 mm 1 mps 717 mmHg 78%
    08:00 +11°C° 0 mm 1 mps 717 mmHg 69%
    09:00 +13°C° 0 mm 1 mps 716 mmHg 60%
    10:00 +16°C° 0 mm 1 mps 716 mmHg 51%
    11:00 +18°C° 0 mm 1 mps 716 mmHg 47%
    12:00 +19°C° 0 mm 1 mps 716 mmHg 43%
    13:00 +19°C° 0 mm 2 mps 715 mmHg 39%
    14:00 +20°C° 0 mm 1 mps 715 mmHg 41%
    15:00 +20°C° 0 mm 1 mps 715 mmHg 42%
    16:00 +20°C° 0 mm 1 mps 715 mmHg 43%
    17:00 +18°C° 0 mm 1 mps 715 mmHg 50%
    18:00 +14°C° 0 mm 1 mps 715 mmHg 57%
    19:00 +12°C° 0 mm 1 mps 715 mmHg 63%
    20:00 +11°C° 0 mm 1 mps 715 mmHg 66%
    21:00 +11°C° 0 mm 1 mps 715 mmHg 68%
    22:00 +10°C° 0 mm 1 mps 715 mmHg 71%
    23:00 +10°C° 0 mm 1 mps 715 mmHg 73%

    26 September, Wednesday

    Time Temperature Precipitation Wind Pressure Humidity
    00:00 +10°C° 0 mm 1 mps 715 mmHg 75%
    01:00 +10°C° 0 mm 1 mps 715 mmHg 78%
    02:00 +10°C° 0.6 mm 1 mps 715 mmHg 81%
    03:00 +9°C° 0.6 mm 1 mps 715 mmHg 85%
    04:00 +9°C° 0.6 mm 1 mps 715 mmHg 88%
    05:00 +8°C° 0.9 mm 2 mps 716 mmHg 89%
    06:00 +8°C° 0.9 mm 2 mps 716 mmHg 91%
    07:00 +8°C° 0.9 mm 2 mps 716 mmHg 92%
    08:00 +8°C° 0.7 mm 3 mps 716 mmHg 90%
    09:00 +8°C° 0.7 mm 3 mps 717 mmHg 88%
    10:00 +8°C° 0.7 mm 4 mps 717 mmHg 86%
    11:00 +8°C° 0.1 mm 4 mps 717 mmHg 83%
    12:00 +10°C° 0.1 mm 4 mps 717 mmHg 80%
    13:00 +9°C° 0.1 mm 5 mps 717 mmHg 76%
    14:00 +11°C° 0 mm 4 mps 717 mmHg 74%
    15:00 +11°C° 0 mm 4 mps 717 mmHg 71%
    16:00 +11°C° 0 mm 3 mps 717 mmHg 68%
    17:00 +10°C° 0 mm 3 mps 717 mmHg 75%
    18:00 +8°C° 0 mm 2 mps 717 mmHg 81%
    19:00 +8°C° 0 mm 1 mps 717 mmHg 87%
    20:00 +8°C° 0 mm 1 mps 717 mmHg 86%
    21:00 +8°C° 0 mm 1 mps 717 mmHg 84%
    22:00 +7°C° 0 mm 2 mps 716 mmHg 83%
    23:00 +7°C° 0 mm 2 mps 716 mmHg 82%
    Show more